Location: Moondance
(40.1328°N, 106.5113°W)
Time: 03:34:33
(UTC-07:00)

Envisat - Visible Passes

Search period start: 19 January 2019 00:00
Search period end: 29 January 2019 00:00
Orbit: 764 x 766 km, 98.2° (Epoch: 19 January)

Date Brightness Start Highest point End Pass type
(mag) Time Alt. Az. Time Alt. Az. Time Alt. Az.
19 Jan 3.2 18:20:16 10° SE 18:25:04 45° ENE 18:29:54 10° N visible
19 Jan 5.4 20:00:36 10° SW 20:04:17 20° W 20:07:59 10° NW visible
20 Jan 6.0 06:30:57 10° NE 06:34:04 16° E 06:37:12 10° SE visible
20 Jan 4.1 17:44:52 10° ESE 17:48:37 21° ENE 17:52:23 10° NNE visible
20 Jan 4.0 19:22:29 10° S 19:27:18 45° W 19:32:10 10° NNW visible
21 Jan 2.9 18:45:28 10° SSE 18:50:31 80° ENE 18:55:37 10° N visible
21 Jan 6.1 20:28:53 10° WSW 20:30:07 11° W 20:31:22 10° WNW visible
22 Jan 3.5 18:09:20 10° SE 18:13:55 36° ENE 18:18:32 10° N visible
22 Jan 5.1 19:48:50 10° SSW 19:52:59 25° W 19:57:10 10° NW visible
23 Jan 6.2 06:20:36 10° ENE 06:22:45 13° E 06:24:53 10° ESE visible
23 Jan 3.6 19:11:06 10° S 19:16:04 57° W 19:21:05 10° NNW visible
24 Jan 2.9 18:34:22 10° SSE 18:39:21 63° ENE 18:44:22 10° N visible
24 Jan 5.9 20:16:07 10° WSW 20:18:46 14° W 20:21:27 10° WNW visible
25 Jan 5.8 06:44:35 10° NE 06:48:33 23° E 06:52:30 10° SE visible
25 Jan 3.8 17:58:30 10° SE 18:02:48 29° ENE 18:07:08 10° N visible
25 Jan 4.7 19:37:13 10° SSW 19:41:43 32° W 19:46:15 10° NNW visible
26 Jan 3.2 18:59:48 10° S 19:04:51 74° WSW 19:09:56 10° NNW visible
27 Jan 3.1 18:23:18 10° SE 18:28:10 50° ENE 18:33:04 10° N visible
27 Jan 5.6 20:04:01 10° SW 20:07:28 18° W 20:10:55 10° NW visible
28 Jan 6.0 06:33:50 10° NE 06:37:15 18° E 06:40:39 10° SE visible
28 Jan 4.0 17:47:46 10° ESE 17:51:42 23° ENE 17:55:38 10° NNE visible
28 Jan 4.3 19:25:42 10° SSW 19:30:27 41° W 19:35:14 10° NNW visible
